Regional Weather Roundup
Issued by NWS Columbia, SC

Home | Current Version | Previous Version | Text Only | Print | Product List | Glossary On
Versions: 1 2 3 4 5 6 7 8 9 10 11 12 13 14 15 16 17 18 19 20 21 22 23 24 25 26 27 28 29 30 31 32 33 34 35 36 37 38 39 40 41 42 43 44 45 46 47 48 49 50
000
ASUS42 KCAE 222310
RWRCAE
REGIONAL WEATHER ROUNDUP
NATIONAL WEATHER SERVICE COLUMBIA SC
700 PM EDT TUE JUL 22 2014

NOTE: "FAIR" INDICATES FEW OR NO CLOUDS BELOW 12,000 FEET WITH NO
SIGNIFICANT WEATHER AND/OR OBSTRUCTIONS TO VISIBILITY.

NOT ALL STATIONS ARE QUALITY CONTROLLED BY THE NATIONAL
WEATHER SERVICE. USE DATA WITH CAUTION...ESPECIALLY
DEWPOINT OBSERVATIONS.

SCZ001>056-GAZ040-063>065-077-230000-
...UPSTATE SOUTH CAROLINA...

CITY           SKY/WX    TMP DP  RH WIND       PRES   REMARKS
ANDERSON       SUNNY     84  68  58 E9        30.08F
LIBERTY        CLOUDY    82  83 100 E8        30.10S HX  97
SPARTANBURG    PTSUNNY   79  75  89 NE5       30.10F
CLEMSON        SUNNY     83  69  62 E5        30.10F
GREENVILLE     CLOUDY    80  69  69 E9        30.12S
GREENWOOD      MOSUNNY   76  72  87 N7        30.10F
GREER          MOSUNNY   79  72  79 NE6       30.10S
ROCK HILL      RAIN      77  73  87 CALM      30.12R FOG
CHESTER        MOCLDY    81  79  94 CALM      30.10F
LAURENS        FAIR      81  75  83 CALM      30.11F


...CENTRAL SOUTH CAROLINA...

CITY           SKY/WX    TMP DP  RH WIND       PRES   REMARKS
COLUMBIA APT   PTSUNNY   86  73  65 E7        30.06R
COLUMBIA OWENS PTSUNNY   85  72  65 E5        30.07R
DARLINGTON     PTSUNNY   86  72  62 NE3       30.08R
FLORENCE       CLOUDY    85  73  67 SE3       30.06S
MCENTIRE ANGB  MOSUNNY   82  74  74 SE7       30.08R
ORANGEBURG     PTSUNNY   83  71  67 SE8       30.06S
SUMTER SHAW    PTSUNNY   83  74  73 SE6       30.06F
NEWBERRY       MOCLDY    79  73  83 N8        30.11F
AIKEN          FAIR      77  77 100 NE6       30.11R
BARNWELL       FAIR      82  73  74 SE7       30.05R
MANNING        FAIR      81 N/A N/A MISG      30.07R
CAMDEN         FAIR      84  72  65 E5        30.08S
LANCASTER      MOCLDY    81  73  78 E3        30.09S
WINNSBORO      FAIR      81  70  69 NE3       30.08S


...EASTERN AND COASTAL SOUTH CAROLINA...

CITY           SKY/WX    TMP DP  RH WIND       PRES   REMARKS
MYRTLE BEACH   MOSUNNY   82  75  78 S8        30.06S
N MYRTLE BCH   CLOUDY    81  77  88 E5        30.06F
CONWAY           N/A     81  77  89 CALM      30.07R
MARION         FAIR      82  73  74 CALM      30.06S
HARTSVILLE     CLOUDY    86  55  35 E3        30.09R
FLORENCE       CLOUDY    85  73  67 SE3       30.06S
DARLINGTON     PTSUNNY   86  72  62 NE3       30.08R
CHARLESTON APT PTSUNNY   85  73  67 SE10      30.06F
MOUNT PLEASANT DRIZZLE   82  75  78 SE5       30.07R
WALTERBORO     MOCLDY    86  72  62 E5        30.06S
BEAUFORT       PTSUNNY   84  75  74 S9        30.05R


...EASTERN GEORGIA...

CITY           SKY/WX    TMP DP  RH WIND       PRES   REMARKS
AUGUSTA BUSH F MOSUNNY   86  70  58 MISG      30.04R
AUGUSTA DANIEL MOSUNNY   86  72  62 N9        30.07R
THOMSON        SUNNY     86  78  76 NE3       30.11R HX  99
WASHINGTON     FAIR      86  77  74 NE3       30.07S HX  97
CLAXTON        CLOUDY    77  77 100 N5        30.05F
SYLVANIA       CLEAR     90  75  61 CALM      30.04S HX 100
STATESBORO     LGT RAIN  82  74  77 SW14      30.05R
SAVANNAH       PTSUNNY   85  72  65 SE10      30.05R


...SOUTHERN NORTH CAROLINA...

CITY           SKY/WX    TMP DP  RH WIND       PRES   REMARKS
CHARLOTTE      PTSUNNY   78  69  73 SE7       30.11S
MONROE         PTSUNNY   82  73  74 CALM      30.09S
WADESBORO      CLEAR     84  71  65 SE6       30.08S HAZE
ROCKINGHAM       N/A     84  70  61 E3        30.08R
RUTHERFORDTON  PTSUNNY   77  71  83 S7        30.13R
ASHEVILLE      CLOUDY    76  67  73 SE3       30.17R

$$



USA.gov is the U.S. government's official web portal to all federal, state and local government web resources and services.